GW5961 Weather Reports


time (UTC)temp
C
wind
direction
speed
KPH
gust
KPH
rain 1hr
cm
rain 24hr
cm
rain mn
cm
humidity
%
barometer
mb
20260507041238 11 312 3.2 4.8 0.00 0.00 0.00 93 1020.5
20260507040735 11 312 3.2 4.8 0.00 0.00 0.00 93 1020.2
20260507040231 11 177 3.2 6.4 0.00 0.00 0.00 92 1020.2
20260507035727 11 177 3.2 6.4 0.00 0.00 0.00 92 1020.2
20260507035222 11 177 3.2 6.4 0.00 0.00 0.00 92 1020.3
20260507034720 11 177 3.2 6.4 0.00 0.00 0.00 92 1020.2
20260507034217 11 325 4.8 6.4 0.00 0.00 0.00 91 1020.2
20260507033716 11 286 0.0 3.2 0.00 0.00 0.00 91 1020.0
20260507033213 11 286 0.0 3.2 0.00 0.00 0.00 91 1020.0
20260507032710 11 286 0.0 3.2 0.00 0.00 0.00 91 1020.0
20260507032206 11 286 0.0 3.2 0.00 0.00 0.00 91 1020.1
20260507031703 11 286 0.0 1.6 0.00 0.00 0.00 91 1019.9
20260507031159 12 265 0.0 4.8 0.00 0.00 0.00 90 1019.9
20260507030656 12 265 0.0 4.8 0.00 0.00 0.00 90 1019.8
20260507030154 12 232 3.2 3.2 0.00 0.00 0.00 90 1019.9
20260507025651 12 232 3.2 3.2 0.00 0.00 0.00 90 1019.8
20260507025148 12 232 3.2 3.2 0.00 0.00 0.00 90 1019.8
20260507024646 12 232 3.2 3.2 0.00 0.00 0.00 90 1019.9
20260507024143 12 232 3.2 3.2 0.00 0.00 0.00 90 1019.9
20260507023638 11 203 6.4 6.4 0.00 0.00 0.00 89 1019.9
20260507023136 12 270 1.6 4.8 0.00 0.00 0.00 90 1019.9
20260507022633 12 184 4.8 8.0 0.00 0.00 0.00 90 1019.9
20260507022128 12 184 4.8 8.0 0.00 0.00 0.00 90 1019.9
20260507021625 12 184 4.8 8.0 0.00 0.00 0.00 90 1019.9
20260507021120 12 352 0.0 4.8 0.00 0.00 0.00 91 1020.0
20260507020619 12 352 0.0 4.8 0.00 0.00 0.00 91 1019.7
20260507020114 12 352 0.0 4.8 0.00 0.00 0.00 91 1020.0
20260507015613 12 270 1.6 3.2 0.00 0.00 0.00 90 1020.0
20260507015110 12 270 1.6 3.2 0.00 0.00 0.00 90 1020.0
20260507014607 12 270 1.6 3.2 0.00 0.00 0.00 90 1020.0
20260507014103 12 270 1.6 3.2 0.00 0.00 0.00 90 1019.9
20260507013559 12 270 1.6 3.2 0.00 0.00 0.00 90 1019.8
20260507013057 12 270 1.6 3.2 0.00 0.00 0.00 90 1019.8
20260507012554 12 320 3.2 3.2 0.00 0.00 0.00 88 1019.6
20260507012049 12 320 3.2 3.2 0.00 0.00 0.00 88 1019.6
20260507011548 12 320 3.2 3.2 0.00 0.00 0.00 88 1019.9
20260507011044 12 320 3.2 3.2 0.00 0.00 0.00 88 1019.8
20260507010538 12 320 3.2 3.2 0.00 0.00 0.00 88 1019.9
20260507010035 12 320 3.2 3.2 0.00 0.00 0.00 88 1019.8
20260507005532 12 191 0.0 3.2 0.00 0.00 0.00 88 1019.7
20260507005028 12 270 0.0 3.2 0.00 0.00 0.00 87 1019.8
20260507004526 12 270 0.0 3.2 0.00 0.00 0.00 87 1019.8
20260507004023 12 270 0.0 3.2 0.00 0.00 0.00 87 1019.8
20260507003518 13 226 4.8 4.8 0.00 0.00 0.00 87 1019.8
20260507003014 13 226 4.8 4.8 0.00 0.00 0.00 87 1019.8
20260507002510 13 226 4.8 4.8 0.00 0.00 0.00 87 1019.7
20260507002007 13 226 4.8 4.8 0.00 0.00 0.00 87 1019.7
20260507001503 12 347 6.4 8.0 0.00 0.00 0.00 85 1019.7
20260507001001 12 347 6.4 8.0 0.00 0.00 0.00 85 1019.6
20260507000456 12 347 6.4 8.0 0.00 0.00 0.00 85 1019.7
20260506235952 12 347 6.4 8.0 0.00 0.00 0.00 85 1019.9
20260506235450 12 347 6.4 8.0 0.00 0.00 0.00 85 1019.8
20260506234945 12 347 6.4 8.0 0.00 0.00 0.00 85 1019.6
20260506234443 12 347 6.4 8.0 0.00 0.00 0.00 85 1019.6
20260506233940 12 347 6.4 8.0 0.00 0.00 0.00 85 1019.6
20260506233437 13 319 6.4 6.4 0.00 0.00 0.00 87 1019.8
20260506232933 13 250 3.2 3.2 0.00 0.00 0.00 87 1019.5
20260506232430 13 250 3.2 3.2 0.00 0.00 0.00 87 1019.5
20260506231925 13 250 3.2 3.2 0.00 0.00 0.00 87 1019.7
20260506231423 13 250 3.2 3.2 0.00 0.00 0.00 87 1019.7
20260506230920 13 250 3.2 3.2 0.00 0.00 0.00 87 1019.8
20260506230417 13 250 3.2 3.2 0.00 0.00 0.00 87 1019.8
20260506225913 12 278 0.0 6.4 0.00 0.00 0.00 86 1019.9
20260506225411 12 84 3.2 8.0 0.00 0.00 0.00 86 1019.9
20260506224907 13 250 3.2 3.2 0.00 0.00 0.00 86 1019.9
20260506224405 13 294 1.6 3.2 0.00 0.00 0.00 86 1020.0
20260506223901 13 294 1.6 3.2 0.00 0.00 0.00 86 1019.9
20260506223356 13 250 4.8 4.8 0.00 0.00 0.00 83 1020.0
20260506222854 13 250 4.8 4.8 0.00 0.00 0.00 83 1020.0
20260506222349 13 250 4.8 4.8 0.00 0.00 0.00 83 1019.9
20260506221847 13 250 4.8 4.8 0.00 0.00 0.00 83 1019.9
20260506221344 13 250 4.8 4.8 0.00 0.00 0.00 83 1020.0
20260506220842 13 250 4.8 4.8 0.00 0.00 0.00 83 1020.0
20260506220337 13 250 4.8 4.8 0.00 0.00 0.00 83 1019.9
20260506215834 13 318 4.8 11.3 0.00 0.00 0.00 82 1019.9
20260506215330 13 318 4.8 11.3 0.00 0.00 0.00 82 1019.8
20260506214826 13 318 4.8 11.3 0.00 0.00 0.00 82 1020.1
20260506214323 13 318 4.8 11.3 0.00 0.00 0.00 82 1020.1
20260506213821 13 318 4.8 11.3 0.00 0.00 0.00 82 1019.8
20260506213318 13 318 4.8 11.3 0.00 0.00 0.00 82 1020.0
20260506212816 13 318 4.8 11.3 0.00 0.00 0.00 82 1019.8
20260506212311 13 318 4.8 11.3 0.00 0.00 0.00 82 1020.0
20260506211806 13 318 4.8 11.3 0.00 0.00 0.00 82 1019.9
20260506211303 13 318 4.8 11.3 0.00 0.00 0.00 82 1019.9
20260506210800 13 354 0.0 9.7 0.00 0.00 0.00 81 1019.9
20260506210256 13 0 0.0 9.7 0.00 0.00 0.00 81 1019.8
20260506205754 13 180 3.2 11.3 0.00 0.00 0.00 80 1019.9
20260506205249 13 180 3.2 11.3 0.00 0.00 0.00 80 1019.8
20260506204746 13 180 3.2 11.3 0.00 0.00 0.00 80 1019.8
20260506204244 13 180 3.2 11.3 0.00 0.00 0.00 80 1019.7
20260506203742 13 180 3.2 11.3 0.00 0.00 0.00 80 1019.9
20260506203239 13 180 3.2 11.3 0.00 0.00 0.00 80 1019.9
20260506202736 13 180 3.2 11.3 0.00 0.00 0.00 80 1019.9
20260506202232 13 180 3.2 11.3 0.00 0.00 0.00 80 1019.8
20260506201729 14 296 4.8 4.8 0.00 0.00 0.00 79 1019.8
20260506201226 13 127 3.2 6.4 0.00 0.00 0.00 81 1019.7
20260506200723 13 127 3.2 6.4 0.00 0.00 0.00 81 1019.8
20260506200220 13 127 3.2 6.4 0.00 0.00 0.00 81 1019.8
20260506195716 13 207 4.8 4.8 0.00 0.00 0.00 81 1019.7
20260506195213 13 233 3.2 6.4 0.00 0.00 0.00 84 1019.7
20260506194710 13 233 3.2 6.4 0.00 0.00 0.00 84 1019.7
20260506194206 13 233 3.2 6.4 0.00 0.00 0.00 84 1019.7
20260506193704 13 248 3.2 12.9 0.00 0.00 0.00 83 1019.6
20260506193201 12 275 3.2 8.0 0.00 0.00 0.00 86 1019.7
20260506192657 12 275 3.2 8.0 0.00 0.00 0.00 86 1019.6
20260506192154 12 275 3.2 8.0 0.00 0.00 0.00 86 1019.6
20260506191651 12 198 3.2 4.8 0.00 0.00 0.00 86 1019.7
20260506191147 11 177 9.7 11.3 0.00 0.00 0.00 87 1019.7
20260506190644 11 177 9.7 11.3 0.00 0.00 0.00 87 1019.8
20260506190141 11 177 9.7 11.3 0.00 0.00 0.00 87 1019.8
20260506185638 11 177 9.7 11.3 0.00 0.00 0.00 87 1019.8
20260506185134 11 174 1.6 12.9 0.00 0.00 0.00 86 1019.7
20260506184632 11 174 1.6 12.9 0.00 0.00 0.00 86 1019.7
20260506184129 11 174 1.6 12.9 0.00 0.00 0.00 86 1019.5
20260506183626 11 176 3.2 8.0 0.00 0.00 0.00 87 1019.3
20260506183121 12 299 0.0 6.4 0.00 0.00 0.00 88 1019.6
20260506182619 11 243 1.6 6.4 0.00 0.00 0.00 87 1019.5
20260506182116 11 322 3.2 3.2 0.00 0.00 0.00 87 1019.4
20260506181614 11 322 3.2 3.2 0.00 0.00 0.00 87 1019.3
20260506181111 11 322 3.2 3.2 0.00 0.00 0.00 87 1019.5
20260506180608 11 322 3.2 3.2 0.00 0.00 0.00 87 1019.4
20260506180104 11 322 3.2 3.2 0.00 0.00 0.00 87 1019.5
20260506175600 11 322 3.2 3.2 0.00 0.00 0.00 87 1019.4
20260506175056 11 322 3.2 3.2 0.00 0.00 0.00 87 1019.3
20260506174556 11 322 3.2 3.2 0.00 0.00 0.00 87 1019.4
20260506174051 11 322 3.2 3.2 0.00 0.00 0.00 87 1019.4
20260506173549 11 345 9.7 9.7 0.00 0.00 0.00 88 1019.0
20260506173046 11 225 4.8 8.0 0.00 0.00 0.00 87 1019.2
20260506172543 11 225 4.8 8.0 0.00 0.00 0.00 87 1019.3
20260506172039 11 301 4.8 4.8 0.00 0.00 0.00 88 1019.2
20260506171537 11 321 3.2 4.8 0.00 0.00 0.00 87 1019.2
20260506171034 11 321 3.2 4.8 0.00 0.00 0.00 87 1019.2
20260506170532 11 321 3.2 4.8 0.00 0.00 0.00 87 1019.3
20260506170029 11 321 3.2 4.8 0.00 0.00 0.00 87 1019.0
20260506165528 11 321 3.2 4.8 0.00 0.00 0.00 87 1019.0
20260506165023 11 321 3.2 4.8 0.00 0.00 0.00 87 1019.0
20260506164520 11 169 4.8 4.8 0.00 0.00 0.00 87 1018.9
20260506164018 11 169 4.8 4.8 0.00 0.00 0.00 87 1018.9
20260506163514 11 169 4.8 4.8 0.00 0.00 0.00 87 1018.8
20260506163010 11 169 4.8 4.8 0.00 0.00 0.00 87 1019.0
20260506162506 11 169 4.8 4.8 0.00 0.00 0.00 87 1019.0
20260506162003 11 169 4.8 4.8 0.00 0.00 0.00 87 1018.9
20260506161501 11 203 0.0 6.4 0.00 0.00 0.00 88 1019.0
20260506160958 10 356 0.0 4.8 0.00 0.00 0.00 92 1018.7
20260506160455 10 356 0.0 4.8 0.00 0.00 0.00 92 1018.7
20260506155952 10 356 0.0 4.8 0.00 0.00 0.00 92 1018.7
20260506155450 10 356 0.0 4.8 0.00 0.00 0.00 92 1018.8
20260506153616 10 356 0.0 4.8 0.00 0.00 0.00 92 1019.1
20260506153114 10 356 0.0 4.8 0.00 0.00 0.00 92 1019.1
20260506152611 10 356 0.0 4.8 0.00 0.00 0.00 92 1019.0
20260506152109 10 261 0.0 0.0 0.00 0.00 0.00 94 1019.1
20260506151607 10 261 0.0 0.0 0.00 0.00 0.00 94 1018.9
20260506151103 10 261 0.0 0.0 0.00 0.00 0.00 94 1018.9
20260506150600 10 261 0.0 0.0 0.00 0.00 0.00 94 1018.7
20260506150057 10 261 0.0 0.0 0.00 0.00 0.00 94 1018.6
20260506145554 10 261 0.0 0.0 0.00 0.00 0.00 94 1018.5
20260506145051 10 261 0.0 0.0 0.00 0.00 0.00 94 1018.5
20260506144547 10 286 0.0 0.0 0.00 0.00 0.00 94 1018.6
20260506144045 10 270 3.2 3.2 0.00 0.00 0.00 94 1018.5
20260506143542 10 221 6.4 6.4 0.00 0.00 0.00 94 1018.3
20260506143041 10 206 0.0 0.0 0.00 0.00 0.00 95 1018.3
20260506142538 10 206 0.0 0.0 0.00 0.00 0.00 95 1018.4
20260506142036 10 206 0.0 0.0 0.00 0.00 0.00 95 1018.3
20260506141533 10 206 0.0 0.0 0.00 0.00 0.00 95 1018.3
20260506141032 10 206 0.0 0.0 0.00 0.00 0.00 95 1018.1
20260506140529 10 206 0.0 0.0 0.00 0.00 0.00 95 1018.2
20260506140026 10 206 0.0 0.0 0.00 0.00 0.00 95 1018.4
20260506135523 10 206 0.0 0.0 0.00 0.00 0.00 95 1018.1
20260506135019 10 206 0.0 0.0 0.00 0.00 0.00 95 1018.0
20260506134515 10 206 0.0 0.0 0.00 0.00 0.00 95 1018.1
20260506134012 10 279 0.0 0.0 0.00 0.00 0.00 95 1018.0
20260506133509 10 279 0.0 0.0 0.00 0.00 0.00 95 1017.9
20260506133006 10 279 0.0 0.0 0.00 0.00 0.00 95 1018.0
20260506132503 10 283 1.6 1.6 0.00 0.00 0.00 96 1017.9
20260506132000 10 283 1.6 1.6 0.00 0.00 0.00 96 1017.9
20260506131457 10 262 0.0 1.6 0.00 0.00 0.00 95 1017.9
20260506130954 10 262 0.0 1.6 0.00 0.00 0.00 95 1017.9
20260506130450 10 262 0.0 1.6 0.00 0.00 0.00 95 1017.7
20260506125948 10 262 0.0 1.6 0.00 0.00 0.00 95 1017.9
20260506125446 10 262 0.0 1.6 0.00 0.00 0.00 95 1017.7
20260506124944 10 262 0.0 1.6 0.00 0.00 0.00 95 1017.7
20260506124441 10 262 0.0 1.6 0.00 0.00 0.00 95 1017.8
20260506123939 10 262 0.0 1.6 0.00 0.00 0.00 95 1017.7
20260506123437 10 337 0.0 1.6 0.00 0.00 0.00 95 1017.8
20260506122934 10 337 0.0 1.6 0.00 0.00 0.00 95 1017.7
20260506122431 10 337 0.0 1.6 0.00 0.00 0.00 95 1017.9
20260506121929 10 337 0.0 1.6 0.00 0.00 0.00 95 1017.7
20260506121426 10 337 0.0 1.6 0.00 0.00 0.00 95 1017.7
20260506120923 10 337 0.0 1.6 0.00 0.00 0.00 95 1018.1
20260506120420 10 337 0.0 1.6 0.00 0.00 0.00 95 1018.0
20260506115917 10 337 0.0 1.6 0.00 0.00 0.00 95 1017.8
20260506115415 10 337 0.0 1.6 0.00 0.00 0.00 95 1017.8
20260506114914 10 337 0.0 1.6 0.00 0.00 0.00 95 1017.7
20260506114411 10 278 1.6 3.2 0.00 0.00 0.00 95 1017.7
20260506113910 10 322 0.0 3.2 0.00 0.00 0.00 95 1017.7
20260506113407 10 322 0.0 3.2 0.00 0.00 0.00 95 1017.5
20260506112903 10 322 0.0 3.2 0.00 0.00 0.00 95 1017.5
20260506112400 10 322 0.0 3.2 0.00 0.00 0.00 95 1017.6
20260506111857 10 303 0.0 3.2 0.00 0.00 0.00 95 1017.4
20260506111356 10 303 0.0 3.2 0.00 0.00 0.00 95 1017.4
20260506110853 10 303 0.0 3.2 0.00 0.00 0.00 95 1017.3
20260506110350 10 328 0.0 1.6 0.00 0.00 0.00 95 1017.1
20260506105847 10 291 1.6 1.6 0.00 0.00 0.00 95 1017.4
20260506105343 10 291 1.6 1.6 0.00 0.00 0.00 95 1017.2
20260506104841 10 291 1.6 1.6 0.00 0.00 0.00 95 1017.1
20260506104338 10 291 1.6 1.6 0.00 0.00 0.00 95 1017.1
20260506103836 10 291 1.6 1.6 0.00 0.00 0.00 95 1017.2
20260506103333 10 291 1.6 1.6 0.00 0.00 0.00 95 1017.1
20260506102830 10 291 1.6 1.6 0.00 0.00 0.00 95 1016.9
20260506102328 10 291 1.6 1.6 0.00 0.00 0.00 95 1017.0
20260506101825 10 305 3.2 4.8 0.00 0.00 0.00 95 1016.5
20260506101321 10 305 3.2 4.8 0.00 0.00 0.00 95 1016.9
20260506100819 10 320 0.0 3.2 0.00 0.00 0.00 95 1016.6
20260506100317 10 320 0.0 3.2 0.00 0.00 0.00 95 1016.7
20260506095815 10 300 0.0 1.6 0.00 0.00 0.00 95 1016.9
20260506095312 10 300 0.0 1.6 0.00 0.00 0.00 95 1016.7
20260506094809 10 297 1.6 3.2 0.00 0.00 0.00 95 1016.9
20260506094308 10 309 3.2 3.2 0.00 0.00 0.00 95 1016.6
20260506093805 10 276 1.6 1.6 0.00 0.00 0.00 95 1016.7
20260506093302 10 315 3.2 3.2 0.00 0.00 0.00 95 1016.8
20260506092800 10 304 0.0 3.2 0.00 0.00 0.00 95 1016.6
20260506092258 10 304 0.0 3.2 0.00 0.00 0.00 95 1016.7
20260506091755 10 283 0.0 1.6 0.00 0.00 0.00 95 1016.7
20260506091252 10 283 0.0 1.6 0.00 0.00 0.00 95 1016.7
20260506090750 10 283 0.0 1.6 0.00 0.00 0.00 95 1016.7
20260506090247 10 286 0.0 1.6 0.00 0.00 0.00 95 1016.7
20260506085743 10 294 0.0 0.0 0.00 0.00 0.00 96 1016.4
20260506085240 10 294 0.0 0.0 0.00 0.00 0.00 96 1016.5
20260506084736 10 294 0.0 0.0 0.00 0.00 0.00 96 1016.6
20260506084233 10 254 0.0 1.6 0.00 0.00 0.00 96 1016.7
20260506083730 10 340 0.0 0.0 0.00 0.00 0.00 97 1016.4
20260506083227 10 340 0.0 0.0 0.00 0.00 0.00 97 1016.4
20260506082725 10 340 0.0 0.0 0.00 0.00 0.00 97 1016.5
20260506082220 10 340 0.0 0.0 0.00 0.00 0.00 97 1016.6
20260506081718 10 342 1.6 3.2 0.00 0.00 0.00 98 1016.4
20260506081215 10 342 1.6 3.2 0.00 0.00 0.00 98 1016.4
20260506080713 10 342 1.6 3.2 0.00 0.00 0.00 98 1016.4
20260506080209 10 342 1.6 3.2 0.00 0.00 0.00 98 1016.4
20260506073154 10 279 0.0 0.0 0.00 0.00 0.00 99 1015.9
20260506072650 10 279 0.0 0.0 0.00 0.00 0.00 99 1015.8
20260506072148 10 279 0.0 0.0 0.00 0.00 0.00 99 1016.0
20260506071645 10 279 0.0 0.0 0.00 0.00 0.00 99 1016.0
20260506071143 10 261 0.0 0.0 0.00 0.00 0.00 98 1015.9
20260506070640 10 261 0.0 0.0 0.00 0.00 0.00 98 1015.8
20260506070137 10 261 0.0 0.0 0.00 0.00 0.00 98 1015.7
20260506062451 10 261 0.0 0.0 0.00 0.00 0.00 98 1015.6
20260506061947 10 261 0.0 0.0 0.00 0.00 0.00 98 1015.6
20260506061443 9 260 0.0 0.0 0.00 0.00 0.00 95 1015.6
20260506060942 9 260 0.0 0.0 0.00 0.00 0.00 94 1015.5
20260506060440 9 260 0.0 0.0 0.00 0.00 0.00 94 1015.5
20260506051412 10 203 0.0 3.2 0.00 0.00 0.00 96 1015.3
20260506050908 10 203 0.0 3.2 0.00 0.00 0.00 96 1015.6
20260506050406 10 203 0.0 3.2 0.00 0.00 0.00 96 1015.6
20260506044856 10 203 0.0 3.2 0.00 0.00 0.00 96 1015.6
20260506044354 10 342 1.6 3.2 0.00 0.00 0.00 93 1015.5
20260506043851 10 220 3.2 4.8 0.00 0.00 0.00 93 1015.6
20260506043348 10 190 1.6 4.8 0.00 0.00 0.00 93 1015.2
20260506042846 10 269 1.6 4.8 0.00 0.00 0.00 93 1015.2
20260506042345 10 239 0.0 1.6 0.00 0.00 0.00 93 1015.1
20260506041844 10 265 0.0 1.6 0.00 0.00 0.00 93 1015.2
20260506041340 10 20 0.0 1.6 0.00 0.00 0.00 93 1015.0